Erie, PA

8:20 AM EST on December 14, 2019 (GMT -0500)
Erie International

Weather History for KERI - October, 2019

Change the Weather History Date:

Friday, October 18, 2019

  Actual Average Record
Temperature  
Mean Temperature 46 °F 52 °F  
Max Temperature 54 °F 60 °F 80 °F (1950)
Min Temperature 39 °F 45 °F 28 °F (1974)
Degree Days  
Heating Degree Days 18 13  
Month to date heating degree days 136 187  
Since 1 July heating degree days 148 311  
Cooling Degree Days 0 0  
Month to date cooling degree days 22 7  
Year to date cooling degree days 847 636  
Moisture  
Dew Point 36 °F    
Average Humidity 63    
Maximum Humidity 86    
Minimum Humidity 52    
Precipitation  
Precipitation T in 0.12 in 2.76 in (1988)
Month to date precipitation 1.41 2.48  
Year to date precipitation 31.04 32.92  
Snow  
Snow 0.00 in 0.00 in - ()
Month to date snowfall 0.0 0.0  
Since 1 July snowfall 0.0 0.0  
Since 1 September snowfall 0.0 0.0  
Snow Depth 0.00 in    
Sea Level Pressure  
Sea Level Pressure 30.04 in    
Wind  
Wind Speed 9 mph ()    
Max Wind Speed 17 mph    
Max Gust Speed 25 mph    
Visibility 10.0 miles    
Events Rain    
T = Trace of Precipitation, MM = Missing Value Source: Averaged Metar Reports

Daily Weather History Graph

Daily Weather History Graph

Search for Another Location

Airport or City:

Astronomy

Oct. 18, 2019 Rise Set
Actual Time 7:36 AM EDT 6:34 PM EDT
Civil Twilight 7:08 AM EDT 7:02 PM EDT
Nautical Twilight 6:35 AM EDT 7:35 PM EDT
Astronomical Twilight 6:03 AM EDT 8:07 PM EDT
Moon 9:46 PM EDT (10/18) 12:11 PM EDT (10/18)
Length of Visible Light 11h 54m
Length of Day
10h 58m
Waning Gibbous, 79% of the Moon is Illuminated
Oct 18
Waning Gibbous
Oct 21
Last Quarter
Oct 27
New
Nov 4
First Quarter
Nov 12
Full

Hourly Weather History & Observations

Time (EDT) Temp. Windchill Dew Point Humidity Pressure Visibility Wind Dir Wind Speed Gust Speed Precip Events Conditions
12:51 AM 50.0 °F - 35.1 °F 57% 29.93 in 10.0 mi NW 13.8 mph 24.2 mph N/A   Overcast
1:51 AM 50.0 °F - 34.0 °F 54% 29.94 in 10.0 mi NNW 15.0 mph 20.7 mph N/A   Overcast
2:51 AM 50.0 °F - 35.1 °F 57% 29.94 in 10.0 mi NNW 10.4 mph 20.7 mph N/A   Overcast
3:51 AM 50.0 °F - 34.0 °F 54% 29.96 in 10.0 mi NNW 11.5 mph - N/A   Overcast
5:51 AM 50.0 °F - 37.0 °F 61% 29.99 in 10.0 mi NNW 10.4 mph - 0.00 in Rain Light Rain
6:29 AM 50.0 °F - 37.0 °F 61% 29.99 in 10.0 mi NNW 10.4 mph - 0.00 in   Overcast
6:51 AM 50.0 °F - 37.0 °F 61% 30.01 in 10.0 mi NNW 12.7 mph 18.4 mph 0.00 in   Overcast
7:51 AM 50.0 °F - 34.0 °F 54% 30.01 in 10.0 mi NW 9.2 mph 19.6 mph N/A   Mostly Cloudy
8:51 AM 50.0 °F - 36.0 °F 59% 30.04 in 10.0 mi NNW 11.5 mph 18.4 mph N/A   Overcast
9:51 AM 48.9 °F - 37.0 °F 64% 30.06 in 10.0 mi North 11.5 mph 19.6 mph N/A   Overcast
10:51 AM 50.0 °F - 37.0 °F 61% 30.07 in 10.0 mi North 8.1 mph - N/A   Overcast
11:12 AM 50.0 °F - 37.0 °F 61% 30.06 in 10.0 mi North 10.4 mph - N/A   Overcast
11:21 AM 50.0 °F - 37.0 °F 61% 30.06 in 10.0 mi NW 8.1 mph - N/A   Overcast
11:51 AM 50.0 °F - 36.0 °F 59% 30.08 in 10.0 mi NNW 10.4 mph 18.4 mph N/A   Overcast
12:51 PM 51.1 °F - 36.0 °F 56% 30.07 in 10.0 mi NW 9.2 mph - N/A   Overcast
1:51 PM 51.1 °F - 37.0 °F 59% 30.07 in 10.0 mi WNW 8.1 mph - N/A   Overcast
2:51 PM 52.0 °F - 37.0 °F 57% 30.06 in 10.0 mi WNW 9.2 mph - N/A   Mostly Cloudy
3:51 PM 54.0 °F - 37.9 °F 55% 30.06 in 10.0 mi Variable 5.8 mph - N/A   Scattered Clouds
4:51 PM 53.1 °F - 37.9 °F 57% 30.06 in 10.0 mi WNW 6.9 mph - N/A   Mostly Cloudy
5:51 PM 51.1 °F - 37.0 °F 59% 30.05 in 10.0 mi West 6.9 mph - N/A   Partly Cloudy
6:51 PM 48.0 °F - 37.9 °F 68% 30.06 in 10.0 mi SW 3.5 mph - N/A   Clear
7:51 PM 44.1 °F 42.5 °F 37.0 °F 76% 30.06 in 10.0 mi South 3.5 mph - N/A   Clear
8:51 PM 43.0 °F 39.5 °F 37.0 °F 80% 30.06 in 10.0 mi South 5.8 mph - N/A   Clear
9:51 PM 41.0 °F 37.1 °F 36.0 °F 82% 30.08 in 10.0 mi South 5.8 mph - N/A   Clear
10:51 PM 39.9 °F 35.8 °F 36.0 °F 86% 30.09 in 10.0 mi South 5.8 mph - N/A   Clear
11:51 PM 39.9 °F 37.8 °F 36.0 °F 86% 30.08 in 10.0 mi South 3.5 mph - N/A   Clear